Погода в Перемилово

Россия / Ивановская область     57°15′07″N   41°30′49″E
темп.,
°C
ветер,
м/с
пор.,
м/с
влажн.,
%
обл.,
%
осадки,
мм/ч
давл.,
гПа
погр.,
м
13 мая, чт
чт1300:00+15юв348545 0.1 102172
03:00+13юв36915 0.1 102194
06:00+13юв37885 0.0 1021207
09:00+18юв577425 0.0 1021765
12:00+21юв695874 0.0 10201747
15:00+21вюв5963100 1.3 10171409
18:00+16ююз5887100 2.1 1017520
21:00+13ююв239371 5.4 101771
14 мая, пт
пт1400:00+10ю23900 0.0 101829
03:00+10ю22940 0.0 101820
06:00+12ююв24926 0.0 1019123
09:00+17ююв4676100 0.0 1019496
12:00+20ю4663100 0.0 10191191
15:00+21ююв4557100 0.2 10181289
18:00+20юв3673100 0.3 1016187
21:00+15вюв478585 0.3 1016100
15 мая, сб
сб1500:00+14вюв4995100 2.5 1015174
03:00+14юв3896100 3.5 1014154
06:00+15ю4896100 0.5 1014268
09:00+20ююв2379100 0.5 1012313
12:00+23ююв6868100 0.4 10111282
15:00+20юз81184100 7.6 1011899
18:00+20ю7128042 4.5 1010880
21:00+16ююз412933 5.1 1011326
16 мая, вс
вс1600:00+14ююз399591 0.0 1012203
03:00+13ююз379510 0.0 1013128
06:00+14ююз37920 0.0 1013191
09:00+18ююз467685 0.0 1014604
12:00+21ююз4662100 0.0 10141495
15:00+22ююз595775 0.3 10132214
18:00+19зюз510710 1.2 1013451
21:00+14юз34850 1.2 101463
17 мая, пн
пн1700:00+12зюз37951 0.0 1016128
03:00+11сз22945 0.0 101717
06:00+13ссз1286100 0.0 101872
09:00+17в2272100 0.0 1018393
12:00+21вюв225970 0.0 1018933
15:00+23вюв2253100 0.0 10171140
18:00+22вюв236660 0.0 1017153
21:00+16в478053 0.0 101791